OpenBCM V2.0.3 (Linux)

Packet Radio Mailbox

IZ3LSV

[San Dona' di P. JN]

 Login: GUEST





  
LU9DCE > KEPS     07.01.18 18:56l 253 Lines 12540 Bytes #999 (0) @ LUNET
BID : 28837_LU9DCE
Read: GUEST
Subj: SAT TLE OF 7
Path: IZ3LSV<IQ2LB<IQ5KG<IK1NHL<CX2SA<N0KFQ<LU4ECL<LU9DCE
Sent: 180107/1601Z @:LU9DCE.TOR.BA.ARG.SOAM #:28837 [TORTUGUITAS] FBB7.0.8-beta
From: LU9DCE@LU9DCE.TOR.BA.ARG.SOAM
To  : KEPS@LUNET


            __    _  _  ___  ____   ___  ____    ____  ____  ____
           (  )  / )( \/ _ \(    \ / __)(  __)  (  _ \(  _ \/ ___)
           / (_/\) \/ (\__  )) D (( (__  ) _)    ) _ ( ) _ (\___ \
           \____/\____/(___/(____/ \___)(____)  (____/(____/(____/
               ESTACION DE PACKET RADIO - BUENOS AIRES (GF05OM)
                   BOLETINES INFORMATIVOS PROGRAMADOS (BIP)
                    LU9DCE@GMX.COM - RF 147070 @ 1200 BAUD
                        https://lu9dce.wordpress.com/
                      telnet lu9dce.dynv6.net port 6300

+------------------------------------------------------------------------------+
OSCAR 7
1  7530U 74089B   18007.13326484 -.00000027 +00000-0 +10981-3 0  9992
2  7530 101.6635 337.0266 0011868 288.1035 134.8303 12.53630577974187
OSCAR 11 (UoSAT 2)
1 14781U 84021B   18007.21276488 +.00000054 +00000-0 +12927-4 0  9994
2 14781 097.6714 050.1024 0007154 247.1567 112.8892 14.82971597799580
OSCAR 19 (LUSAT)
1 20442U 90005G   18007.25680030 +.00000013 +00000-0 +20981-4 0  9994
2 20442 098.5959 306.8708 0010640 265.3184 094.6784 14.32883461460784
KITSAT B
1 22825U 93061C   18006.94341866 +.00000007 +00000-0 +20653-4 0  9991
2 22825 098.8417 340.3258 0009481 096.0356 264.1906 14.30018587266250
POSAT 1
1 22826U 93061D   18007.13742873 -.00000002  00000-0  16814-4 0  9997
2 22826  98.8359 340.5805 0010005  86.5311 273.7015 14.30349110266734
RADIO ROSTO
1 23439U 94085A   18007.11191003 -.00000045 +00000-0 -68610-4 0  9995
2 23439 064.8153 249.3425 0162406 210.6026 304.9591 11.27566299948409
JAS 2
1 24278U 96046B   18007.17819387 -.00000071 +00000-0 -37914-4 0  9996
2 24278 098.5317 227.9784 0350593 168.4466 192.4989 13.53080613056213
TECHSAT 1B
1 25397U 98043D   18006.87449836 -.00000005 +00000-0 +16683-4 0  9998
2 25397 098.6338 310.1284 0002238 109.6147 250.5273 14.23637432012559
ISS (ZARYA)
1 25544U 98067A   18007.54888889  .00001569  00000-0  30791-4 0  9999
2 25544  51.6433  99.5350 0003081 349.4517 215.5271 15.54267880 93539
PCSAT
1 26931U 01043C   18007.19730138 -.00000018 +00000-0 +24745-4 0  9993
2 26931 067.0519 284.8096 0005250 275.3444 084.7059 14.30489799849456
SAUDISAT 1C
1 27607U 02058C   18007.09846691 -.00000025 +00000-0 +17051-4 0  9992
2 27607 064.5539 222.4031 0045575 009.1375 351.0546 14.75409886809060
CUTE-1
1 27844U 03031E   18006.97882655 +.00000044 +00000-0 +39504-4 0  9990
2 27844 098.6885 018.0043 0010727 115.7085 244.5201 14.22087128753245
CUBESAT XI 4
1 27848U 03031J   18007.24536872 +.00000024 +00000-0 +30945-4 0  9990
2 27848 098.6974 018.6080 0010562 124.0481 236.1701 14.21694889753165
MOZHAYETS 4
1 27939U 03042A   18007.51204271  .00000107  00000-0  27727-4 0  9994
2 27939  97.9655 151.0439 0011780 300.8935 122.8604 14.66646881763268
CUBESAT XI 5
1 28895U 05043F   18006.92487364 +.00000128 +00000-0 +33327-4 0  9995
2 28895 097.8854 165.1365 0016117 215.5704 144.4425 14.63495019650054
CUTE-1.7+APD II
1 32785U 08021C   18007.20472096  .00000183  00000-0  25540-4 0  9994
2 32785  97.5541  27.0191 0012410 206.5168 153.5416 14.88041407525233
DELFI C3
1 32789U 08021G   18007.23929784 +.00001637 +00000-0 +11737-3 0  9999
2 32789 097.5347 065.9779 0013802 124.6408 235.6123 15.05655027527460
SEEDS
1 32791U 08021J   18007.01698267  .00000363  00000-0  42602-4 0  9998
2 32791  97.5473  31.8028 0013182 189.0933 171.0049 14.90438706525500
YUBELEINY
1 32953U 08025A   18007.23137787  .00000033  00000-0  16948-3 0  9998
2 32953  82.5041 112.7858 0019349 197.9761 162.0637 12.43080798436776
PRISM (HITOMI)
1 33493U 09002B   18007.38812802  .00000779  00000-0  74950-4 0  9993
2 33493  98.1460 263.1729 0016429 124.4902 235.7877 14.96029097486303
KKS-1 (KISEKI)
1 33499U 09002H   18007.50612011  .00000096  00000-0  22286-4 0  9990
2 33499  98.3455 184.1230 0010439  85.2161 275.0239 14.75281913481487
SWISSCUBE
1 35932U 09051B   18006.95595400 +.00000114 +00000-0 +36831-4 0  9990
2 35932 098.5212 154.4706 0007303 353.7248 006.3857 14.56107970439930
BEESAT
1 35933U 09051C   18007.06368996  .00000099  00000-0  33206-4 0  9997
2 35933  98.5251 156.0235 0005821   9.5972 350.5335 14.56217175440095
ITUPSAT 1
1 35935U 09051E   18007.09650973  .00000082  00000-0  30049-4 0  9995
2 35935  98.5363 156.3117 0007987   0.5924 359.5280 14.55400680439894
XIWANG-1 (HOPE-1)
1 36122U 09072B   18007.18589681 -.00000056 +00000-0 -37106-4 0  9998
2 36122 100.0856 029.2936 0008072 122.1130 238.0769 13.16342857387366
TISAT 1
1 36799U 10035E   18007.15741723 +.00000362 +00000-0 +42974-4 0  9990
2 36799 098.0841 139.3629 0012715 023.4455 336.7339 14.90661120405966
JUGNU
1 37839U 11058B   18007.16366659 +.00000281 +00000-0 +79103-5 0  9999
2 37839 019.9617 293.6606 0018824 271.5021 229.3107 14.12605701322466
SRMSAT
1 37841U 11058D   18007.23131508 +.00000292 +00000-0 +15126-4 0  9999
2 37841 019.9733 339.1328 0011954 161.7995 320.0421 14.10595580322034
M-CUBED/EXP-1 PRIME
1 37855U 11061F   18007.16964526  .00000701  00000-0  44309-4 0  9994
2 37855 101.7207 347.3262 0177889 198.5544 160.9126 15.03963937337443
HORYU 2
1 38340U 12025D   18007.08551011 +.00000180 +00000-0 +34540-4 0  9994
2 38340 098.3749 023.2009 0011720 009.8038 350.3397 14.75479631292948
STRAND 1
1 39090U 13009E   18007.04368118  .00000029  00000-0  25640-4 0  9993
2 39090  98.5340 215.3753 0010161  59.1698 301.0486 14.35005631254714
BEESAT 3
1 39134U 13015E   18007.22114481  .00001001  00000-0  57297-4 0  9995
2 39134  64.8640 287.4194 0029490 231.3399 128.5089 15.18696503260453
SOMP
1 39135U 13015F   18007.24752500 +.00000877 +00000-0 +54793-4 0  9996
2 39135 064.8701 298.6372 0030505 255.8296 103.9440 15.16301623259854
BEESAT 2
1 39136U 13015G   18007.22755677 +.00000707 +00000-0 +46765-4 0  9995
2 39136 064.8706 301.0619 0031606 253.8583 105.9063 15.15787233259805
CUBEBUG 1
1 39153U 13018D   18007.23661546 +.00000196 +00000-0 +32692-4 0  9995
2 39153 097.9824 103.4395 0018346 106.8958 253.4267 14.80320664253694
ZACUBE
1 39417U 13066B   18007.16468824 +.00000192 +00000-0 +30828-4 0  9992
2 39417 097.6060 044.2452 0058222 323.6467 036.0798 14.80855416222961
TRITON 1
1 39427U 13066M   18006.99068842 +.00000198 +00000-0 +39409-4 0  9999
2 39427 097.6365 013.6669 0115380 056.2573 304.9563 14.67593145220740
GOMX 1
1 39430U 13066Q   18007.48566168  .00000191  00000-0  43239-4 0  9991
2 39430  97.6804 356.1106 0152907 117.6333 244.0486 14.59001026219722
HUMSAT D
1 39433U 13066T   18007.12652733 +.00000400 +00000-0 +44939-4 0  9990
2 39433 097.6275 068.9575 0029665 258.0428 101.7465 14.91711205223234
50 SAT
1 39436U 13066W   18006.87854485  .00040729  00000-0  61501-3 0  9993
2 39436  97.7118 130.0703 0005591  61.6049 298.5767 15.54619778228087
CUBEBUG 2
1 39440U 13066AA  18007.09448717 +.00000194 +00000-0 +34159-4 0  9992
2 39440 097.6117 031.8231 0080529 359.7003 000.4146 14.75592930220961
FUNCUBE 1
1 39444U 13066AE  18007.04157999 +.00000225 +00000-0 +34411-4 0  9996
2 39444 097.6074 045.4470 0057317 319.9855 039.7142 14.81617081221206
UWE-3
1 39446U 13066AG  18007.52842565  .00000181  00000-0  30929-4 0  9992
2 39446  97.6076  38.0644 0069747 340.7899  19.0684 14.78126200221386
SPROUT
1 39770U 14029E   18007.47112918  .00000818  00000-0  98304-4 0  9996
2 39770  97.8758 109.9415 0009710  25.0832 335.0854 14.86621582196487
UNISAT 6
1 40012U 14033C   18007.23824637 +.00000175 +00000-0 +33804-4 0  9994
2 40012 097.8302 249.2430 0058608 358.9687 001.1392 14.73747595190991
DUCHIFAT 1
1 40021U 14033M   18007.18001600 +.00000498 +00000-0 +57255-4 0  9999
2 40021 097.9176 285.6097 0013012 355.5617 004.5483 14.90162104192974
QB50P1
1 40025U 14033R   18007.16628015  .00000280  00000-0  36032-4 0  9995
2 40025  97.9092 282.8643 0012591   1.2817 358.8430 14.88611658192831
CHUBUSAT 1
1 40300U 14070C   18007.47885598  .00000629  00000-0  31014-4 0  9999
2 40300  97.3806  88.5150 0022119 104.3130 322.1906 15.21331595175849
NUDT-PHONESAT
1 40900U 15049B   18007.25280247 +.00001818 +00000-0 +85918-4 0  9991
2 40900 097.4424 017.4367 0012395 228.1864 131.8314 15.20630750127453
ZDPS 2A
1 40901U 15049C   18007.52070324  .00000778  00000-0  42971-4 0  9991
2 40901  97.4586  16.4179 0012493 232.2335 127.7767 15.16785875127305
ZDPS 2B
1 40902U 15049D   18007.20945498 +.00000704 +00000-0 +39426-4 0  9990
2 40902 097.4472 014.4081 0012575 230.3002 129.7123 15.16596403127249
XW-2A
1 40903U 15049E   18007.50630774  .00001602  00000-0  42415-4 0  9992
2 40903  97.4030  40.6532 0012838 247.4227 112.5661 15.39863423129076
KAITUO 1A
1 40904U 15049F   18007.45341465  .00000239  00000-0  16360-4 0  9998
2 40904  97.4564  14.0854 0013326 232.3485 286.9885 15.14837934127166
OBJECT G
1 40905U 15049G   18007.53484646  .00000333  00000-0  21987-4 0  9993
2 40905  97.4551  12.5152 0014734 222.4648 137.5444 15.13822727127112
XW-2C
1 40906U 15049H   18007.49846436  .00000542  00000-0  32556-4 0  9994
2 40906  97.4576  13.9878 0013968 222.4738 137.5414 15.14963499127163
XW-2D
1 40907U 15049J   18007.53206865  .00000610  00000-0  36066-4 0  9992
2 40907  97.4548  13.7401 0013377 219.9330 140.0920 15.15097452127176
LILACSAT 2
1 40908U 15049K   18007.21795800 +.00000334 +00000-0 +22306-4 0  9995
2 40908 097.4655 012.9913 0014960 221.7634 138.2456 15.13375234127024
XW-2F
1 40910U 15049M   18007.53506624  .00000916  00000-0  50807-4 0  9990
2 40910  97.4559  14.7702 0014202 216.5342 143.4923 15.16179006127101
XW-2B
1 40911U 15049N   18007.54397049  .00000591  00000-0  35063-4 0  9997
2 40911  97.4587  14.2249 0013268 220.4063 139.6185 15.15047798127073
